ANA747 RJTT-RJNW

Flight info

Callsign ANA747
Flight time 0h 55m
Altitude 28000
Route BEKLA Y885 AZUMI/N0425F270 V57 HAPPO
Aircraft A321/M-SDE3FGHIRWY/LB1

Departure

Time 2026-05-04 09:37
Airport Tokyo Haneda International Airport (RJTT)

Arrival

Time 2026-05-04 10:33
Airport Noto Satoyama Airport (RJNW)
Time Latitude Longitude Altitude Speed Heading
2026-05-04 09:14 35.55608 139.78858 24 ft 0 kts 149°
2026-05-04 09:25 35.55610 139.78857 24 ft 2 kts 149°
2026-05-04 09:25 35.55631 139.78839 26 ft 4 kts 142°
2026-05-04 09:26 35.55652 139.78818 28 ft 4 kts 129°
2026-05-04 09:26 35.55664 139.78791 24 ft 4 kts 90°
2026-05-04 09:26 35.55663 139.78778 24 ft 0 kts 62°
2026-05-04 09:30 35.55663 139.78779 24 ft 2 kts 62°
2026-05-04 09:31 35.55682 139.78823 24 ft 7 kts 60°
2026-05-04 09:31 35.55707 139.78874 25 ft 7 kts 59°
2026-05-04 09:31 35.55733 139.78928 23 ft 9 kts 59°
2026-05-04 09:31 35.55788 139.78964 23 ft 9 kts 348°
2026-05-04 09:32 35.55853 139.78923 23 ft 10 kts 328°
2026-05-04 09:32 35.55913 139.78880 23 ft 10 kts 329°
2026-05-04 09:34 35.56496 139.78499 23 ft 10 kts 24°
2026-05-04 09:34 35.56531 139.78559 26 ft 0 kts 60°
2026-05-04 09:35 35.56553 139.78606 23 ft 12 kts 60°
2026-05-04 09:35 35.56557 139.78680 26 ft 8 kts 129°
2026-05-04 09:35 35.56528 139.78702 24 ft 0 kts 148°
2026-05-04 09:37 35.52334 139.82250 1760 ft 158 kts 147°
2026-05-04 09:37 35.51521 139.83297 2057 ft 180 kts 146°
2026-05-04 09:38 35.50599 139.84477 2318 ft 202 kts 146°
2026-05-04 09:38 35.49561 139.85790 2483 ft 226 kts 147°
2026-05-04 09:38 35.48423 139.87220 2685 ft 251 kts 145°
2026-05-04 09:38 35.47136 139.88832 2943 ft 274 kts 143°
2026-05-04 09:39 35.45820 139.90592 3524 ft 290 kts 132°
2026-05-04 09:39 35.45101 139.92983 4203 ft 310 kts 96°
2026-05-04 09:39 35.45462 139.95580 4862 ft 315 kts 62°
2026-05-04 09:39 35.46752 139.97693 5508 ft 309 kts 31°
2026-05-04 09:40 35.48653 139.98722 6166 ft 293 kts
2026-05-04 09:40 35.50660 139.98866 6847 ft 287 kts 348°
2026-05-04 09:40 35.52614 139.98645 7494 ft 284 kts 339°
2026-05-04 09:40 35.54556 139.98072 8149 ft 284 kts 333°
2026-05-04 09:41 35.56445 139.97459 8840 ft 287 kts 335°
2026-05-04 09:42 35.71750 139.94244 11639 ft 336 kts 310°
2026-05-04 09:43 35.73306 139.92233 12170 ft 322 kts 294°
2026-05-04 09:43 35.74308 139.89836 12743 ft 311 kts 279°
2026-05-04 09:43 35.74762 139.87270 13338 ft 305 kts 270°
2026-05-04 09:43 35.75066 139.84687 13884 ft 306 kts 270°
2026-05-04 09:44 35.75372 139.82077 14424 ft 308 kts 270°
2026-05-04 09:44 35.75678 139.79458 14965 ft 310 kts 269°
2026-05-04 09:44 35.75990 139.76816 15501 ft 312 kts 269°
2026-05-04 09:46 35.80163 139.58003 18880 ft 333 kts 275°
2026-05-04 09:46 35.80841 139.55267 19283 ft 335 kts 275°
2026-05-04 09:46 35.81523 139.52518 19672 ft 336 kts 276°
2026-05-04 09:47 35.82207 139.49762 20125 ft 338 kts 276°
2026-05-04 09:47 35.82773 139.46972 20584 ft 330 kts 268°
2026-05-04 09:49 35.83148 139.27145 23101 ft 337 kts 263°
2026-05-04 09:49 35.83191 139.24248 23372 ft 339 kts 263°
2026-05-04 09:49 35.83233 139.21375 23788 ft 339 kts 263°
2026-05-04 09:51 35.89831 139.04413 25628 ft 388 kts 289°
2026-05-04 09:51 35.91298 139.01611 25936 ft 389 kts 289°
2026-05-04 09:51 35.92769 138.98800 26197 ft 390 kts 289°
2026-05-04 09:51 35.94240 138.95980 26390 ft 392 kts 289°
2026-05-04 09:52 35.95716 138.93141 26689 ft 394 kts 289°
2026-05-04 09:52 35.97197 138.90288 27040 ft 396 kts 289°
2026-05-04 09:52 35.98682 138.87426 27425 ft 395 kts 289°
2026-05-04 09:52 36.00170 138.84562 27541 ft 397 kts 288°
2026-05-04 09:53 36.01654 138.81702 27593 ft 394 kts 289°
2026-05-04 09:53 36.03125 138.78873 27639 ft 390 kts 288°
2026-05-04 09:53 36.04589 138.76052 27593 ft 389 kts 288°
2026-05-04 09:53 36.06045 138.73242 27608 ft 388 kts 288°
2026-05-04 09:54 36.07500 138.70423 27615 ft 389 kts 288°
2026-05-04 09:54 36.08950 138.67605 27615 ft 388 kts 288°
2026-05-04 09:54 36.10399 138.64795 27620 ft 387 kts 288°
2026-05-04 09:54 36.11847 138.61986 27624 ft 387 kts 288°
2026-05-04 09:55 36.13276 138.59206 27642 ft 387 kts 288°
2026-05-04 09:55 36.14719 138.56396 27642 ft 387 kts 288°
2026-05-04 09:55 36.16163 138.53584 27631 ft 387 kts 288°
2026-05-04 09:55 36.17611 138.50770 27627 ft 387 kts 288°
2026-05-04 09:56 36.19054 138.47959 27633 ft 387 kts 288°
2026-05-04 09:56 36.20495 138.45148 27625 ft 387 kts 288°
2026-05-04 09:56 36.21935 138.42334 27627 ft 386 kts 288°
2026-05-04 09:56 36.23375 138.39520 27675 ft 387 kts 288°
2026-05-04 09:57 36.24815 138.36697 27685 ft 388 kts 288°
2026-05-04 09:57 36.26255 138.33874 27682 ft 387 kts 288°
2026-05-04 09:57 36.27696 138.31051 27681 ft 387 kts 288°
2026-05-04 09:57 36.29133 138.28235 27686 ft 386 kts 288°
2026-05-04 09:58 36.30567 138.25424 27689 ft 386 kts 288°
2026-05-04 09:58 36.31999 138.22616 27686 ft 385 kts 288°
2026-05-04 09:58 36.33430 138.19808 27691 ft 383 kts 287°
2026-05-04 10:00 36.43240 138.00462 27711 ft 379 kts 288°
2026-05-04 10:00 36.44643 137.97688 27708 ft 379 kts 288°
2026-05-04 10:02 36.62622 137.90337 24721 ft 471 kts 344°
2026-05-04 10:04 36.84997 137.89768 18600 ft 441 kts 345°
2026-05-04 10:04 36.88052 137.89663 17591 ft 434 kts 346°
2026-05-04 10:04 36.91034 137.89569 16667 ft 422 kts 347°
2026-05-04 10:04 36.93911 137.89485 16014 ft 403 kts 347°
2026-05-04 10:05 36.96625 137.89412 15835 ft 390 kts 347°
2026-05-04 10:05 36.99338 137.89319 15366 ft 389 kts 347°
2026-05-04 10:05 37.02036 137.89213 14908 ft 387 kts 347°
2026-05-04 10:05 37.04725 137.89106 14440 ft 385 kts 347°
2026-05-04 10:06 37.07298 137.88596 13969 ft 365 kts 332°
2026-05-04 10:06 37.09501 137.87263 13610 ft 341 kts 315°
2026-05-04 10:06 37.11220 137.85360 13228 ft 321 kts 302°
2026-05-04 10:08 37.16867 137.71598 10996 ft 284 kts 288°
2026-05-04 10:08 37.17722 137.69385 10635 ft 280 kts 288°
2026-05-04 10:08 37.18568 137.67198 10275 ft 277 kts 288°
2026-05-04 10:08 37.19394 137.65065 10117 ft 266 kts 288°
2026-05-04 10:09 37.20186 137.63020 9985 ft 255 kts 288°
2026-05-04 10:09 37.20950 137.61035 9902 ft 253 kts 289°
2026-05-04 10:09 37.21713 137.59043 9715 ft 255 kts 289°
2026-05-04 10:09 37.22484 137.57035 9287 ft 255 kts 289°
2026-05-04 10:10 37.23253 137.55040 8900 ft 253 kts 289°
2026-05-04 10:10 37.24016 137.53060 8522 ft 250 kts 289°
2026-05-04 10:10 37.24770 137.51103 8149 ft 248 kts 289°
2026-05-04 10:10 37.25518 137.49158 7783 ft 246 kts 290°
2026-05-04 10:11 37.26260 137.47225 7416 ft 245 kts 290°
2026-05-04 10:11 37.26994 137.45306 7053 ft 244 kts 290°
2026-05-04 10:11 37.27726 137.43390 6692 ft 243 kts 290°
2026-05-04 10:11 37.28455 137.41484 6330 ft 242 kts 290°
2026-05-04 10:12 37.29182 137.39588 5966 ft 240 kts 291°
2026-05-04 10:12 37.29906 137.37703 5590 ft 239 kts 291°
2026-05-04 10:12 37.30613 137.35852 5237 ft 237 kts 291°
2026-05-04 10:12 37.31323 137.33994 4898 ft 234 kts 291°
2026-05-04 10:13 37.32000 137.32239 4747 ft 212 kts 291°
2026-05-04 10:13 37.32627 137.30610 4335 ft 204 kts 291°
2026-05-04 10:13 37.33223 137.29050 3973 ft 193 kts 291°
2026-05-04 10:13 37.33792 137.27558 3885 ft 188 kts 291°
2026-05-04 10:14 37.34355 137.26072 3818 ft 187 kts 291°
2026-05-04 10:14 37.34895 137.24653 3727 ft 173 kts 291°
2026-05-04 10:16 37.36111 137.16204 3211 ft 143 kts 252°
2026-05-04 10:16 37.35735 137.15036 3111 ft 144 kts 252°
2026-05-04 10:16 37.35350 137.13872 2991 ft 143 kts 252°
2026-05-04 10:16 37.34966 137.12728 2930 ft 144 kts 252°
2026-05-04 10:17 37.34576 137.11578 2929 ft 143 kts 252°
2026-05-04 10:17 37.34188 137.10441 2928 ft 139 kts 253°
2026-05-04 10:19 37.31698 137.03145 1771 ft 125 kts 254°
2026-05-04 10:19 37.31355 137.02143 1586 ft 125 kts 252°
2026-05-04 10:19 37.31024 137.01127 1431 ft 126 kts 255°
2026-05-04 10:19 37.30666 137.00103 1306 ft 127 kts 253°
2026-05-04 10:20 37.30318 136.99103 1119 ft 127 kts 252°
2026-05-04 10:20 37.29973 136.98075 918 ft 132 kts 247°
2026-05-04 10:20 37.29600 136.97000 749 ft 133 kts 250°
2026-05-04 10:20 37.29217 136.95893 1031 ft 147 kts 250°
2026-05-04 10:21 37.28776 136.94606 1614 ft 172 kts 253°
2026-05-04 10:21 37.28275 136.93166 2302 ft 188 kts 251°
2026-05-04 10:21 37.27565 136.91746 2679 ft 189 kts 243°
2026-05-04 10:21 37.26627 136.90573 2858 ft 200 kts 216°
2026-05-04 10:22 37.23781 136.91030 2945 ft 233 kts 148°
2026-05-04 10:22 37.22555 136.92389 2955 ft 236 kts 142°
2026-05-04 10:22 37.21404 136.93859 2946 ft 239 kts 131°
2026-05-04 10:23 37.20784 136.95792 2951 ft 243 kts 95°
2026-05-04 10:23 37.21050 136.97833 2954 ft 236 kts 60°
2026-05-04 10:25 37.26285 137.10558 2939 ft 236 kts 61°
2026-05-04 10:25 37.26939 137.12453 2926 ft 236 kts 61°
2026-05-04 10:25 37.27589 137.14343 2927 ft 235 kts 61°
2026-05-04 10:25 37.28216 137.16172 2942 ft 224 kts 61°
2026-05-04 10:26 37.28829 137.17952 2927 ft 220 kts 61°
2026-05-04 10:26 37.29530 137.19625 2924 ft 211 kts 40°
2026-05-04 10:26 37.30686 137.20554 2933 ft 192 kts
2026-05-04 10:26 37.31956 137.20881 2935 ft 183 kts 354°
2026-05-04 10:27 37.33220 137.20975 2936 ft 181 kts 351°
2026-05-04 10:27 37.34374 137.20665 2926 ft 163 kts 320°
2026-05-04 10:27 37.35259 137.19813 2934 ft 159 kts 311°
2026-05-04 10:27 37.35931 137.18773 2922 ft 149 kts 292°
2026-05-04 10:28 37.36226 137.17564 2924 ft 143 kts 276°
2026-05-04 10:28 37.36165 137.16342 2914 ft 142 kts 258°
2026-05-04 10:28 37.35798 137.15156 2934 ft 145 kts 251°
2026-05-04 10:28 37.35407 137.14008 2935 ft 145 kts 252°
2026-05-04 10:29 37.35006 137.12833 2935 ft 145 kts 252°
2026-05-04 10:29 37.34609 137.11667 2938 ft 145 kts 251°
2026-05-04 10:29 37.34214 137.10505 2918 ft 145 kts 251°
2026-05-04 10:29 37.33814 137.09337 2822 ft 145 kts 252°
2026-05-04 10:30 37.33418 137.08175 2640 ft 145 kts 252°
2026-05-04 10:30 37.33022 137.07016 2448 ft 145 kts 252°
2026-05-04 10:30 37.32628 137.05868 2228 ft 140 kts 253°
2026-05-04 10:30 37.32253 137.04772 2043 ft 134 kts 253°
2026-05-04 10:31 37.31887 137.03704 1851 ft 130 kts 255°
2026-05-04 10:31 37.31533 137.02667 1667 ft 127 kts 252°
2026-05-04 10:32 37.29415 136.96439 727 ft 123 kts 248°
2026-05-04 10:33 37.29203 136.95844 724 ft 37 kts 245°
2026-05-04 10:33 37.29127 136.95652 726 ft 17 kts 238°
2026-05-04 10:33 37.29114 136.95594 728 ft 2 kts 346°
2026-05-04 10:33 37.29141 136.95668 725 ft 24 kts 69°
2026-05-04 10:34 37.29198 136.95828 724 ft 11 kts 65°
2026-05-04 10:34 37.29258 136.95856 723 ft 9 kts 343°
2026-05-04 10:34 37.29313 136.95827 724 ft 9 kts 336°
2026-05-04 10:34 37.29365 136.95797 725 ft 8 kts 335°
2026-05-04 10:35 37.29414 136.95791 725 ft 7 kts
2026-05-04 10:35 37.29454 136.95781 726 ft 5 kts 339°
2026-05-04 10:35 37.29471 136.95771 724 ft 1 kts 334°
2026-05-04 10:35 37.29474 136.95769 726 ft 1 kts 334°